TITAN 3C TRANSTAGE DEB, 33512

Orbit data source: Space-Track

TITAN 3C TRANSTAGE DEB, 33512 is space debris in GEO originally from a launch on Thu, 26 Sep 1968 UTC launched from the Air Force Eastern Test Range (AFETR). Debris objects in space refer to the collection of defunct objects orbiting the Earth. Examples of debris include non-operational satellites, rocket bodies, and fragments generated from explosions, collisions, or faulty payload assembly.

Not visible in the next 10 days
Identifier
33512, 1968-081N
Orbit
GEO
Country
Flag of USUS
Related business
Manufacturer
Unknown
Mission
Spacecraft
Bus & Motor
Unknown
Mass
Unknown
Launch date (UTC)
1968-09-26 (57 years ago)
Launch vehicle
Unknown
Launch site
Air Force Eastern Test Range (AFETR)
Object type
Payload
Rocket body
Debris
Shape & HBR
Unknown shape, 1.1 m
Radar Cross Section
Medium (>0.1 m² and <1 m²)

Expand to show TLE details & history
Last TLE update: 20 hours ago

TLE from 20 hours ago
0 TITAN 3C TRANSTAGE DEB
1 33512U 68081N   26065.30018863 -.00000372  00000-0  00000-0 0  9998
2 33512   1.8365  41.0060 0261954 301.2306  56.8086  1.00905127 72593
Epoch: 2026-03-06T07:12Z
TLE epoch observation values (Epoch: 2026-03-06T07:12:16.297Z)
Latitude
-0.00001°
Longitude
129.53258°
Altitude
35,025.01 km
Speed
3.124 km/s
True Right ascension
02h 46m 33s
True Declination
0° 00' 00"
Sunlit
Object was in daylight at epoch
Visualization orbit readout
Latitude
Unknown
Longitude
Unknown
Altitude
Unknown
Speed
Unknown
Apparent Right ascension
Unknown
Apparent Declination
Unknown
Sunlit
N/A
Visualization observer readout
Local Sidereal Time
07:19:23
Azimuth
Unknown
Elevation
Unknown
Doppler factor
Unknown
Orbital elements
Apogee altitude
36,710.973 km
Perigee altitude
34,511.126 km
Semi-major axis
41,989.187 km
Eccentricity
0.0262
Inclination
1.8365°
RAAN
41.006°
Arg. of periapsis
301.2306°
True anomaly
59.36559°
Mean anomaly
56.8086°
Eccentric anomaly
58.08257°
Mean motion
0.25225 °/min
Orbital period
1,427.14 mins
BSTAR
0
Loading maneuver chart data...
Computing Atmospheric mass density...

Documentation

Showing up to 5 results
|